Weather History for Orr, MN

Change the Weather History Date:

Tuesday, March 26, 2013

  Actual Average Record
Temperature  
Mean Temperature 29 °F -  
Max Temperature 37 °F 37 °F 69 °F (2007)
Min Temperature 21 °F 18 °F -7 °F (2001)
Degree Days  
Heating Degree Days 36    
Moisture  
Dew Point 18 °F    
Average Humidity 63    
Maximum Humidity 86    
Minimum Humidity 44    
Precipitation  
Precipitation 0.00 in - - ()
Sea Level Pressure  
Sea Level Pressure 30.21 in    
Wind  
Wind Speed 1 mph (WNW)    
Max Wind Speed 8 mph    
Max Gust Speed -    
Visibility 10 miles    
Events      
Averages and records for this station are not official NWS values.
T = Trace of Precipitation, MM = Missing Value Source: NWS Daily Summary

Daily Weather History Graph

Daily Weather History Graph

Search for Another Location

Airport:

Trip Planner

Search our weather history database for the weather conditions in past years. The results will help you decide how hot, cold, wet, or windy it might be!

Date:

Astronomy

Mar. 26, 2013 Rise Set
Actual Time 7:01 AM CDT 7:33 PM CDT
Civil Twilight 6:30 AM CDT 8:04 PM CDT
Nautical Twilight 5:53 AM CDT 8:41 PM CDT
Astronomical Twilight 5:14 AM CDT 9:20 PM CDT
Moon 7:12 PM CDT 6:19 AM CDT
Length of Visible Light 13h 34m
Length of Day
12h 31m
Waxing Gibbous, 99% of the Moon is Illuminated
Mar 26
Waxing Gibbous
Mar 27
Full
Apr 2
Last Quarter
Apr 10
New
Apr 18
First Quarter

Hourly Weather History & Observations

Time (CDT) Temp. Windchill Dew Point Humidity Pressure Visibility Wind Dir Wind Speed Gust Speed Precip Events Conditions
12:13 AM 26.6 °F - 17.6 °F 69% 30.18 in 10.0 mi Calm Calm - N/A   Overcast
12:33 AM 26.6 °F - 17.6 °F 69% 30.17 in 10.0 mi Calm Calm - N/A   Overcast
12:53 AM 26.6 °F - 17.6 °F 69% 30.18 in 10.0 mi Calm Calm - N/A   Overcast
1:13 AM 26.6 °F - 17.6 °F 69% 30.18 in 10.0 mi Calm Calm - N/A   Overcast
1:33 AM 26.6 °F - 17.6 °F 69% 30.18 in 10.0 mi Calm Calm - N/A   Overcast
1:53 AM 24.8 °F - 17.6 °F 74% 30.18 in 10.0 mi Calm Calm - N/A   Overcast
2:13 AM 26.6 °F - 17.6 °F 69% 30.18 in 10.0 mi Calm Calm - N/A   Overcast
2:33 AM 26.6 °F - 17.6 °F 69% 30.18 in 10.0 mi Calm Calm - N/A   Overcast
2:53 AM 24.8 °F - 17.6 °F 74% 30.18 in 10.0 mi Calm Calm - N/A   Overcast
3:13 AM 24.8 °F - 17.6 °F 74% 30.18 in 10.0 mi Calm Calm - N/A   Overcast
3:33 AM 24.8 °F - 17.6 °F 74% 30.18 in 10.0 mi Calm Calm - N/A   Overcast
3:53 AM 21.2 °F - 17.6 °F 86% 30.19 in 10.0 mi Calm Calm - N/A   Overcast
4:13 AM 24.8 °F 20.5 °F 17.6 °F 74% 30.19 in 10.0 mi NW 3.5 mph - N/A   Overcast
4:33 AM 24.8 °F 20.5 °F 17.6 °F 74% 30.19 in 10.0 mi NW 3.5 mph - N/A   Overcast
4:53 AM 24.8 °F - 17.6 °F 74% 30.19 in 10.0 mi Calm Calm - N/A   Overcast
5:13 AM 24.8 °F - 17.6 °F 74% 30.19 in 10.0 mi Calm Calm - N/A   Overcast
5:33 AM 24.8 °F 20.5 °F 17.6 °F 74% 30.20 in 10.0 mi NW 3.5 mph - N/A   Overcast
5:53 AM 24.8 °F - 17.6 °F 74% 30.20 in 10.0 mi Calm Calm - N/A   Overcast
6:13 AM 24.8 °F - 17.6 °F 74% 30.20 in 10.0 mi Calm Calm - N/A   Overcast
6:33 AM 24.8 °F - 17.6 °F 74% 30.20 in 10.0 mi Calm Calm - N/A   Overcast
6:53 AM 24.8 °F 20.5 °F 17.6 °F 74% 30.20 in 10.0 mi NW 3.5 mph - N/A   Overcast
7:13 AM 24.8 °F - 17.6 °F 74% 30.21 in 10.0 mi Calm Calm - N/A   Overcast
7:33 AM 24.8 °F - 17.6 °F 74% 30.21 in 10.0 mi Calm Calm - N/A   Overcast
7:53 AM 24.8 °F - 17.6 °F 74% 30.22 in 10.0 mi Calm Calm - N/A   Overcast
8:13 AM 24.8 °F - 17.6 °F 74% 30.22 in 10.0 mi Calm Calm - N/A   Overcast
8:33 AM 24.8 °F - 17.6 °F 74% 30.22 in 10.0 mi Calm Calm - N/A   Overcast
8:53 AM 26.6 °F - 17.6 °F 69% 30.22 in 10.0 mi Calm Calm - N/A   Overcast
9:13 AM 26.6 °F 21.2 °F 19.4 °F 74% 30.23 in 10.0 mi WNW 4.6 mph - N/A   Overcast
9:33 AM 26.6 °F - 19.4 °F 74% 30.23 in 10.0 mi Calm Calm - N/A   Overcast
9:53 AM 28.4 °F - 19.4 °F 69% 30.23 in 10.0 mi Calm Calm - N/A   Overcast
10:13 AM 28.4 °F 24.6 °F 19.4 °F 69% 30.23 in 10.0 mi WNW 3.5 mph - N/A   Overcast
10:33 AM 30.2 °F - 21.2 °F 69% 30.23 in 10.0 mi Calm Calm - N/A   Overcast
10:54 AM 32.0 °F 28.7 °F 21.2 °F 64% 30.23 in 10.0 mi West 3.5 mph - N/A   Overcast
11:13 AM 32.0 °F 28.7 °F 19.4 °F 60% 30.23 in 10.0 mi WNW 3.5 mph - N/A   Overcast
11:33 AM 33.8 °F 28.6 °F 19.4 °F 56% 30.23 in 10.0 mi WNW 5.8 mph - N/A   Overcast
11:53 AM 32.0 °F 28.7 °F 19.4 °F 60% 30.23 in 10.0 mi WNW 3.5 mph - N/A   Mostly Cloudy
12:13 PM 35.6 °F 32.8 °F 19.4 °F 52% 30.22 in 10.0 mi WNW 3.5 mph - N/A   Scattered Clouds
12:33 PM 33.8 °F 28.6 °F 19.4 °F 56% 30.22 in 10.0 mi West 5.8 mph - N/A   Clear
12:53 PM 35.6 °F 31.7 °F 19.4 °F 52% 30.22 in 10.0 mi West 4.6 mph - N/A   Clear
1:13 PM 35.6 °F 30.7 °F 19.4 °F 52% 30.21 in 10.0 mi WNW 5.8 mph - N/A   Clear
1:33 PM 37.4 °F 31.4 °F 17.6 °F 45% 30.21 in 10.0 mi WNW 8.1 mph - N/A   Mostly Cloudy
1:53 PM 35.6 °F 29.9 °F 17.6 °F 48% 30.21 in 10.0 mi NW 6.9 mph - N/A   Overcast
2:13 PM 35.6 °F 29.9 °F 15.8 °F 44% 30.21 in 10.0 mi WNW 6.9 mph - N/A   Overcast
2:33 PM 35.6 °F 29.9 °F 17.6 °F 48% 30.21 in 10.0 mi WNW 6.9 mph - N/A   Overcast
2:53 PM 35.6 °F 31.7 °F 15.8 °F 44% 30.21 in 10.0 mi WNW 4.6 mph - N/A   Overcast
3:13 PM 35.6 °F 31.7 °F 17.6 °F 48% 30.20 in 10.0 mi NW 4.6 mph - N/A   Overcast
3:33 PM 35.6 °F 32.8 °F 15.8 °F 44% 30.20 in 10.0 mi NW 3.5 mph - N/A   Overcast
3:53 PM 35.6 °F 31.7 °F 17.6 °F 48% 30.20 in 10.0 mi NW 4.6 mph - N/A   Overcast
4:13 PM 35.6 °F 31.7 °F 17.6 °F 48% 30.20 in - WNW 4.6 mph - N/A   Overcast
4:33 PM 35.6 °F - 17.6 °F 48% 30.20 in 10.0 mi North - - N/A   Overcast
4:53 PM 35.6 °F 30.7 °F 19.4 °F 52% 30.20 in 10.0 mi WNW 5.8 mph - N/A   Overcast
5:13 PM 35.6 °F 31.7 °F 19.4 °F 52% 30.20 in 10.0 mi WNW 4.6 mph - N/A   Overcast
5:33 PM 35.6 °F 31.7 °F 17.6 °F 48% 30.20 in 10.0 mi West 4.6 mph - N/A   Overcast
5:53 PM 35.6 °F - 17.6 °F 48% 30.21 in 10.0 mi Calm Calm - N/A   Overcast
6:13 PM 35.6 °F 32.8 °F 19.4 °F 52% 30.21 in 10.0 mi WNW 3.5 mph - N/A   Overcast
6:33 PM 35.6 °F - 17.6 °F 48% 30.21 in 10.0 mi Calm Calm - N/A   Overcast
6:53 PM 35.6 °F - 19.4 °F 52% 30.21 in 10.0 mi Calm Calm - N/A   Overcast
7:13 PM 35.6 °F - 19.4 °F 52% 30.21 in 10.0 mi Calm Calm - N/A   Overcast
7:33 PM 33.8 °F - 17.6 °F 52% 30.21 in 10.0 mi Calm Calm - N/A   Overcast
7:53 PM 32.0 °F - 17.6 °F 55% 30.21 in 10.0 mi Calm Calm - N/A   Overcast
8:13 PM 30.2 °F - 17.6 °F 60% 30.21 in 10.0 mi Calm Calm - N/A   Overcast
8:33 PM 30.2 °F - 17.6 °F 60% 30.21 in 10.0 mi Calm Calm - N/A   Overcast
8:54 PM 30.2 °F - 19.4 °F 64% 30.22 in 10.0 mi Calm Calm - N/A   Overcast
9:13 PM 30.2 °F - 19.4 °F 64% 30.22 in 10.0 mi Calm Calm - N/A   Overcast
9:33 PM 30.2 °F - 15.8 °F 55% 30.22 in 10.0 mi Calm Calm - N/A   Mostly Cloudy
9:53 PM 28.4 °F - 17.6 °F 64% 30.22 in 10.0 mi Calm Calm - N/A   Mostly Cloudy
10:13 PM 28.4 °F - 17.6 °F 64% 30.23 in 10.0 mi Calm Calm - N/A   Scattered Clouds
10:33 PM 26.6 °F - 17.6 °F 69% 30.23 in 10.0 mi Calm Calm - N/A   Scattered Clouds
10:53 PM 26.6 °F - 17.6 °F 69% 30.23 in 10.0 mi Calm Calm - N/A   Scattered Clouds
11:13 PM 26.6 °F - 17.6 °F 69% 30.23 in 10.0 mi Calm Calm - N/A   Clear
11:33 PM 24.8 °F - 17.6 °F 74% 30.23 in 10.0 mi Calm Calm - N/A   Mostly Cloudy
11:53 PM 26.6 °F - 17.6 °F 69% 30.23 in 10.0 mi Calm Calm - N/A   Mostly Cloudy